Location: *
(50.3440°N, 18.6237°E)
Time: 16:02:24
(UTC+00:00)

CZ-2D R/B - Pass Details

Date: 30 November 2020
Orbit: 521 x 538 km, 97.4° (Epoch: 17 January)

Event Time Altitude Azimuth Distance (km) Brightness Sun altitude
Rises 16:26:48 0° 149° (SSE) 2,652 6.7 -15.4°
Reaches altitude 10° 16:28:57 10° 143° (SE) 1,771 5.7 -15.8°
Maximum altitude 16:32:36 45° 71° (ENE) 735 3.5 -16.3°
Drops below altitude 10° 16:36:18 10° 358° (N) 1,795 5.8 -16.9°
Sets 16:38:29 0° 352° (N) 2,694 6.8 -17.2°
